This is the latest recevied weather packets stored in our database for station/object AA1FF. If no packets are shown the sender has not sent any weather packets the latest 10 day(s).
| Time | Temp. | Humidity | Pressure | Rain* | Wind** | Luminosity | Snow |
|---|---|---|---|---|---|---|---|
| 1777860523 | 2.78° C | 76% | 1011 hPa | 0 mm | - | 0 W/m² | - |
| 1777860224 | 3.33° C | 75% | 1011 hPa | 0 mm | - | 0 W/m² | - |
| 1777859924 | 3.33° C | 74% | 1011 hPa | 0 mm | - | 0 W/m² | - |
| 1777859623 | 3.33° C | 74% | 1010 hPa | 0 mm | - | 0 W/m² | - |
| 1777859325 | 3.33° C | 75% | 1010 hPa | 0 mm | - | 0 W/m² | - |
| 1777859023 | 3.33° C | 76% | 1010 hPa | 0 mm | - | 0 W/m² | - |
| 1777858724 | 3.89° C | 76% | 1010 hPa | 0 mm | - | 0 W/m² | - |
| 1777858424 | 3.89° C | 76% | 1010 hPa | 0 mm | - | 0 W/m² | - |
| 1777858131 | 3.89° C | 75% | 1010 hPa | 0 mm | - | 0 W/m² | - |
| 1777857823 | 4.44° C | 75% | 1010 hPa | 0 mm | - | 0 W/m² | - |
| 1777857524 | 4.44° C | 73% | 1010 hPa | 0 mm | - | 0 W/m² | - |
| 1777857223 | 4.44° C | 72% | 1010 hPa | 0 mm | - | 0 W/m² | - |
| 1777856923 | 5° C | 69% | 1010 hPa | 0 mm | - | 0 W/m² | - |
| 1777856623 | 5° C | 73% | 1010 hPa | 0 mm | - | 0 W/m² | - |
| 1777856324 | 5.56° C | 73% | 1010 hPa | 0 mm | - | 0 W/m² | - |
| 1777856023 | 5.56° C | 69% | 1010 hPa | 0 mm | - | 0 W/m² | - |
| 1777855724 | 5.56° C | 69% | 1010 hPa | 0 mm | - | 0 W/m² | - |
| 1777855424 | 6.11° C | 65% | 1010 hPa | 0 mm | - | 0 W/m² | - |
| 1777855123 | 6.11° C | 61% | 1010 hPa | 0 mm | - | 0 W/m² | - |
| 1777854823 | 6.67° C | 55% | 1010 hPa | 0 mm | - | 0 W/m² | - |
| 1777854524 | 6.67° C | 56% | 1010 hPa | 0 mm | - | 0 W/m² | - |
| 1777854223 | 6.67° C | 55% | 1009 hPa | 0 mm | - | 0 W/m² | - |
| 1777853923 | 7.22° C | 55% | 1009 hPa | 0 mm | - | 0 W/m² | - |
| 1777853623 | 7.78° C | 53% | 1009 hPa | 0 mm | - | 0 W/m² | - |
| 1777853323 | 7.78° C | 53% | 1009 hPa | 0 mm | - | 0 W/m² | - |
* Rain latest hour (hover to see other rain measurements)
** Current wind speed in m/s (hover to see current wind gust speed)